Flag for U.S.A. Weather past 2 weeks in Racine, Wisconsin, U.S.A.

Now
50 °F

Fog.


Feels Like: 48 °F
Forecast: 50 / 61 °F
Wind: 5 mph from West

Location: Batten International Airport

Current Time: Oct 24, 2014 at 8:34:18 AM

Latest Report: Oct 24, 2014 at 7:53 AM


Visibility: 5 mi

Pressure: 30.07 "Hg

Humidity: 93%

Dew point: 48 °F

Location of RacineLocation

Historic Weather in Racine — Graph

°F

Racine temperature yesterday

Maximum temperature yesterday: 57 °F (at 11:53 AM)
Minimum temperature yesterday: 32 °F (at 12:53 AM)
Average temperature yesterday: 47 °F

Past Weeks' High & Low Weather Summary

 TemperatureHumidityPressure
High65 °F (Oct 13, 11:53 PM)97% (Oct 13, 2:53 AM)30.40 "Hg (Oct 13, 2:53 AM)
Low32 °F (Oct 23, 12:53 AM)32% (Oct 9, 2:53 PM)29.51 "Hg (Oct 14, 11:53 AM)
Average50 °F79%29.99 "Hg
* Reported Oct 9 6:53 AM — Oct 24 6:53 AM, Racine, Weather by CustomWeather, © 2014

Note: Actual official high and low records may vary slightly from our data, if they occured in-between our weather recording intervals... More about our weather records

Advertising

Racine weather history for previous 24 hours

 ConditionsComfort  
Time TempWeatherWind HumidityBarometerVisibility
6:53 AM
Oct 24
51 °FFog.5 mph89%30.06 "Hg5 mi
5:53 AM52 °FLow clouds.5 mph86%30.06 "Hg7 mi
4:53 AM52 °FOvercast.5 mph86%30.06 "Hg8 mi
3:53 AM53 °FOvercast.6 mph83%30.06 "Hg9 mi
2:53 AM52 °FOvercast.6 mph80%30.05 "Hg10 mi
12:53 AM51 °FOvercast.3 mph86%30.05 "Hg9 mi
11:53 PM
Oct 23
51 °FFog.No wind89%30.06 "Hg6 mi
10:53 PM51 °FFog.No wind89%30.07 "Hg6 mi
9:53 PM51 °FOvercast.No wind89%30.09 "Hg7 mi
8:53 PM51 °FLight rain. Overcast.3 mph89%30.10 "Hg7 mi
7:53 PM52 °FLight rain. Fog.6 mph86%30.10 "Hg5 mi
6:53 PM54 °FLight rain. Mostly cloudy.No wind80%30.08 "Hg7 mi
5:53 PM54 °FMostly cloudy.7 mph77%30.07 "Hg10 mi
4:53 PM54 °FMore clouds than sun.9 mph74%30.09 "Hg10 mi
3:53 PM54 °FScattered clouds.13 mph72%30.09 "Hg10 mi
2:53 PM55 °FSunny.13 mph67%30.11 "Hg10 mi
1:53 PM57 °FSunny.12 mph60%30.12 "Hg10 mi
12:53 PM57 °FSunny.10 mph53%30.16 "Hg10 mi
11:53 AM57 °FSunny.8 mph55%30.18 "Hg10 mi
10:53 AM55 °FSunny.10 mph59%30.20 "Hg10 mi
9:53 AM49 °FSunny.7 mph71%30.22 "Hg10 mi
8:53 AM45 °FSunny.5 mph80%30.23 "Hg10 mi
Weather by CustomWeather, © 2014

See weather overviewHow to use our weather pages